LiveATC.Net - Listen to live air traffic control over the Internet!


ICAO: KINT  IATA: INT   Airport: Smith Reynolds Airport
City: Winston Salem   State/Province: North Carolina
Country: United States   Continent: North America
KINT METAR Weather: KINT 250254Z AUTO 11006KT 10SM BKN031 OVC040 17/16 A3021 RMK AO2 SLP225 T01670156 51010
KINT Flight Activity (FlightAware)
KINT Airport Info   (iFlightPlanner)
KINT VFR Sectional Chart   (iFlightPlanner) 
KINT IFR Low Chart   (iFlightPlanner) 

KINT Ground/Tower
Feed Status: UP   Listeners: 0
Listen in your browser - HTML5 player (in browser, HTML5)
Click here to listen with your own player (launches your MP3 player)
KINT Ground/Tower Audio Archives
FacilityFrequency
Winston-Salem Ground128.250
Winston-Salem Tower123.750

NOTICE

Unauthorized use prohibited. See LiveATC.net Terms of Service


Airport/ARTCC Code
Frequency Search
(e.g., 124.400, 128.75)
Site-wide search
 


Browse LiveATC Feeds
Top 50 LiveATC Feeds
LiveATC Feed Map
Bad Weather Areas

LiveATC FAQ
Offer LiveATC feed
Contact LiveATC.net
Press Inquiries

LiveATC on iPhone
LiveATC on Android

Windows Phone
Windows 8/10

LiveATC Mobile
(Mobile browser)

ATC Audio Archives
Interesting Recordings

LiveATC Forums


Home Page
About LiveATC.net
Make a Donation
Terms of Use
Privacy Policy

Canadian Air Freqs

AIRMETs/SIGMETs

FAA Airport Status
Nat'l Airspace Status
Arrival Demand Charts


Server Software By:
Icecast.org
Liquidsoap